Weather History for PABR - April, 2013

Change the Weather History Date:

Friday, April 19, 2013

  Actual Average Record
Temperature  
Mean Temperature -2 °F -  
Max Temperature 9 °F 11 °F 35 °F (1967)
Min Temperature -12 °F -3 °F -27 °F (1960)
Degree Days  
Heating Degree Days 67 61  
Month to date heating degree days 1350 1272  
Since 1 July heating degree days 15552 16524  
Cooling Degree Days 0    
Month to date cooling degree days 0  
Year to date cooling degree days 0  
Moisture  
Dew Point -6 °F    
Average Humidity 0    
Maximum Humidity 0    
Minimum Humidity 0    
Precipitation  
Precipitation 0.00 in 0.00 in 0.20 in (1929)
Month to date precipitation 0.04 0.10  
Year to date precipitation 0.67 0.46  
Snow  
Snow 0.00 in 0.10 in 3.00 in (1929)
Month to date snowfall 1.5 2.0  
Since 1 July snowfall 53.4 33.1  
Snow Depth 6.00 in    
Sea Level Pressure  
Sea Level Pressure 30.46 in    
Wind  
Wind Speed 8 mph (SW)    
Max Wind Speed 13 mph    
Max Gust Speed 15 mph    
Visibility 10 miles    
Events      
T = Trace of Precipitation, MM = Missing Value Source: NWS Daily Summary

Daily Weather History Graph

Daily Weather History Graph

Search for Another Location

Airport or City:

Trip Planner

Search our weather history database for the weather conditions in past years. The results will help you decide how hot, cold, wet, or windy it might be!

Date:

Astronomy

Apr. 19, 2013 Rise Set
Actual Time 5:47 AM AKDT 11:08 PM AKDT
Civil Twilight 3:56 AM AKDT 1:06 AM AKDT
Nautical Twilight Sun does not set Sun does not set
Astronomical Twilight Sun does not set Sun does not set
Moon 1:17 PM AKDT (4/19) 6:03 AM AKDT (4/19)
Length of Visible Light 21h 09m
Length of Day
17h 21m
Waxing Gibbous, 63% of the Moon is Illuminated
Apr 19
Waxing Gibbous
Apr 25
Full
May 2
Last Quarter
May 9
New
May 17
First Quarter

Hourly Weather History & Observations

Time (AKDT) Temp. Windchill Dew Point Humidity Pressure Visibility Wind Dir Wind Speed Gust Speed Precip Events Conditions
12:53 AM -9.0 °F -27.4 °F -14.1 °F 79% 30.59 in 10.0 mi SSW 10.4 mph - N/A   Partly Cloudy
1:53 AM -9.0 °F -25.2 °F -13.0 °F 83% 30.58 in 10.0 mi SW 8.1 mph - N/A   Partly Cloudy
2:53 AM -9.0 °F -22.3 °F -13.0 °F 83% 30.58 in 10.0 mi WSW 5.8 mph - N/A   Partly Cloudy
3:53 AM -9.0 °F -18.2 °F -14.1 °F 79% 30.57 in 10.0 mi WSW 3.5 mph - N/A   Partly Cloudy
4:53 AM -8.0 °F -16.9 °F -11.9 °F 83% 30.56 in 10.0 mi WSW 3.5 mph - N/A   Partly Cloudy
5:53 AM -7.1 °F -18.1 °F -11.9 °F 79% 30.54 in 10.0 mi West 4.6 mph - N/A   Partly Cloudy
6:53 AM -11.0 °F -20.4 °F -14.1 °F 86% 30.53 in 10.0 mi WSW 3.5 mph - N/A   Partly Cloudy
7:53 AM -11.0 °F -20.4 °F -15.0 °F 83% 30.52 in 10.0 mi SW 3.5 mph - N/A   Partly Cloudy
8:53 AM -11.0 °F -28.8 °F -15.0 °F 83% 30.51 in 10.0 mi SSW 9.2 mph - N/A   Clear
9:53 AM -9.0 °F -20.4 °F -13.0 °F 83% 30.50 in 10.0 mi SW 4.6 mph - N/A   Clear
10:53 AM -6.0 °F -18.6 °F -11.0 °F 79% 30.48 in 6.0 mi SW 5.8 mph - N/A   Haze
11:53 AM -2.9 °F -15.0 °F -8.0 °F 79% 30.48 in 10.0 mi SSW 5.8 mph - N/A   Clear
12:53 PM -0.9 °F -11.0 °F -7.1 °F 75% 30.46 in 10.0 mi SSW 4.6 mph - N/A   Clear
1:53 PM 3.0 °F -4.4 °F -2.9 °F 76% 30.45 in 10.0 mi South 3.5 mph - N/A   Scattered Clouds
2:53 PM 3.9 °F -8.2 °F -2.0 °F 76% 30.43 in 10.0 mi SSW 6.9 mph - N/A   Scattered Clouds
3:53 PM 7.0 °F -6.6 °F -0.0 °F 73% 30.42 in 10.0 mi WSW 9.2 mph - N/A   Scattered Clouds
4:53 PM 8.1 °F -6.2 °F 1.9 °F 76% 30.40 in 10.0 mi WSW 10.4 mph - N/A   Mostly Cloudy
5:53 PM 9.0 °F -5.1 °F 1.9 °F 73% 30.39 in 10.0 mi WSW 10.4 mph - N/A   Mostly Cloudy
6:53 PM 8.1 °F -7.0 °F 1.9 °F 76% 30.37 in 10.0 mi WSW 11.5 mph - N/A   Mostly Cloudy
7:53 PM 9.0 °F -5.9 °F 3.0 °F 77% 30.37 in 10.0 mi WSW 11.5 mph - N/A   Mostly Cloudy
8:53 PM 7.0 °F -8.3 °F 1.9 °F 80% 30.36 in 10.0 mi WSW 11.5 mph - N/A   Mostly Cloudy
9:53 PM 7.0 °F -8.3 °F 1.9 °F 80% 30.35 in 10.0 mi WSW 11.5 mph - N/A   Mostly Cloudy
10:53 PM 6.1 °F -8.7 °F 1.0 °F 80% 30.34 in 10.0 mi WSW 10.4 mph - N/A   Mostly Cloudy
11:53 PM 5.0 °F -10.8 °F 1.0 °F 84% 30.33 in 10.0 mi SW 11.5 mph - N/A   Mostly Cloudy